| time (UTC) | temp F | wind direction | speed knots | gust knots | rain 1hr in | rain 24hr in | rain mn in | humidity % | barometer mb |
| 20260905224241 | 79 | 258 | 0.9 | 0.9 | 0.00 | 0.24 | 0.09 | 96 | 1009.9 |
| 20260905223240 | 79 | 159 | 0.0 | 0.9 | 0.00 | 0.25 | 0.09 | 96 | 1009.6 |
| 20260905222239 | 79 | 72 | 0.9 | 1.7 | 0.00 | 0.26 | 0.09 | 96 | 1009.6 |
| 20260905221239 | 79 | 36 | 0.0 | 0.9 | 0.00 | 0.27 | 0.09 | 96 | 1009.6 |
| 20260905220238 | 78 | 36 | 0.0 | 0.0 | 0.01 | 0.27 | 0.09 | 96 | 1009.6 |
| 20260905215205 | 78 | 36 | 0.0 | 0.9 | 0.01 | 0.27 | 0.09 | 96 | 1009.6 |
| 20260905214205 | 78 | 27 | 0.0 | 0.9 | 0.02 | 0.28 | 0.09 | 96 | 1009.6 |
| 20260905213204 | 78 | 49 | 0.0 | 0.9 | 0.03 | 0.31 | 0.09 | 96 | 1009.6 |
| 20260905212203 | 77 | 49 | 0.9 | 0.9 | 0.04 | 0.33 | 0.09 | 96 | 1009.9 |
| 20260905211132 | 77 | 49 | 0.0 | 0.9 | 0.04 | 0.33 | 0.09 | 96 | 1009.9 |
| 20260905210130 | 77 | 48 | 0.0 | 0.9 | 0.03 | 0.32 | 0.08 | 96 | 1010.3 |
| 20260905205130 | 77 | 48 | 0.0 | 0.9 | 0.03 | 0.32 | 0.08 | 96 | 1010.3 |
| 20260905204129 | 77 | 105 | 0.0 | 0.9 | 0.03 | 0.31 | 0.07 | 95 | 1010.6 |
| 20260905203128 | 77 | 118 | 0.0 | 2.6 | 0.03 | 0.30 | 0.06 | 95 | 1010.6 |
| 20260905202127 | 77 | 97 | 0.0 | 3.5 | 0.04 | 0.29 | 0.05 | 94 | 1010.6 |
| 20260905201126 | 77 | 306 | 0.9 | 0.9 | 0.04 | 0.29 | 0.05 | 95 | 1011.0 |
| 20260905200054 | 77 | 4 | 0.0 | 0.9 | 0.04 | 0.29 | 0.05 | 95 | 1010.6 |
| 20260905195053 | 78 | 155 | 0.0 | 1.7 | 0.04 | 0.29 | 0.05 | 94 | 1011.0 |
| 20260905194021 | 78 | 131 | 0.9 | 4.3 | 0.03 | 0.28 | 0.04 | 92 | 1011.3 |
| 20260905193020 | 80 | 267 | 0.9 | 4.3 | 0.02 | 0.27 | 0.03 | 86 | 1011.3 |
| 20260905192019 | 84 | 270 | 0.9 | 4.3 | 0.00 | 0.25 | 0.01 | 82 | 1011.3 |
| 20260905191019 | 86 | 326 | 1.7 | 7.8 | 0.00 | 0.25 | 0.01 | 76 | 1010.6 |
| 20260905190018 | 86 | 309 | 1.7 | 8.7 | 0.00 | 0.25 | 0.01 | 77 | 1010.0 |
| 20260905185017 | 87 | 344 | 1.7 | 8.7 | 0.00 | 0.25 | 0.01 | 75 | 1010.3 |
| 20260905184016 | 91 | 307 | 1.7 | 8.7 | 0.00 | 0.25 | 0.01 | 69 | 1010.3 |
| 20260905183015 | 94 | 270 | 2.6 | 5.2 | 0.00 | 0.25 | 0.01 | 63 | 1010.3 |
| 20260905182014 | 94 | 261 | 0.9 | 6.1 | 0.00 | 0.25 | 0.01 | 66 | 1010.3 |
| 20260905181013 | 95 | 200 | 1.7 | 6.1 | 0.00 | 0.25 | 0.01 | 62 | 1010.3 |
| 20260905175941 | 93 | 257 | 0.9 | 2.6 | 0.00 | 0.25 | 0.01 | 67 | 1010.0 |
| 20260905174937 | 93 | 299 | 0.9 | 2.6 | 0.00 | 0.25 | 0.01 | 67 | 1010.3 |
| 20260905173937 | 93 | 232 | 0.9 | 2.6 | 0.00 | 0.25 | 0.01 | 67 | 1010.3 |
| 20260905172936 | 92 | 161 | 0.9 | 2.6 | 0.00 | 0.25 | 0.01 | 67 | 1010.7 |
| 20260905171935 | 92 | 173 | 0.9 | 2.6 | 0.00 | 0.25 | 0.01 | 70 | 1010.7 |
| 20260905170934 | 91 | 249 | 1.7 | 2.6 | 0.00 | 0.25 | 0.01 | 68 | 1011.0 |
| 20260905165933 | 91 | 289 | 0.9 | 2.6 | 0.00 | 0.25 | 0.01 | 72 | 1011.3 |
| 20260905164901 | 90 | 256 | 0.9 | 1.7 | 0.00 | 0.25 | 0.01 | 73 | 1011.3 |
| 20260905163900 | 90 | 293 | 0.9 | 1.7 | 0.00 | 0.25 | 0.01 | 76 | 1011.7 |
| 20260905162859 | 89 | 288 | 0.9 | 2.6 | 0.00 | 0.25 | 0.01 | 75 | 1011.7 |
| 20260905161858 | 89 | 289 | 0.9 | 2.6 | 0.00 | 0.25 | 0.01 | 78 | 1012.0 |
| 20260905160826 | 90 | 288 | 0.9 | 2.6 | 0.00 | 0.25 | 0.01 | 77 | 1012.0 |
| 20260905155825 | 90 | 245 | 0.9 | 1.7 | 0.00 | 0.25 | 0.01 | 80 | 1012.0 |
| 20260905154824 | 89 | 250 | 0.9 | 1.7 | 0.00 | 0.25 | 0.01 | 82 | 1012.3 |
| 20260905153823 | 88 | 231 | 0.9 | 1.7 | 0.00 | 0.25 | 0.01 | 83 | 1012.3 |
| 20260905152751 | 87 | 281 | 0.9 | 1.7 | 0.00 | 0.25 | 0.01 | 86 | 1012.7 |
| 20260905151750 | 86 | 273 | 0.9 | 1.7 | 0.00 | 0.25 | 0.01 | 87 | 1012.7 |
| 20260905150749 | 86 | 279 | 0.9 | 0.9 | 0.00 | 0.25 | 0.01 | 88 | 1012.7 |
| 20260905145717 | 85 | 266 | 0.9 | 0.9 | 0.00 | 0.25 | 0.01 | 91 | 1012.7 |
| 20260905144716 | 83 | 313 | 0.9 | 0.9 | 0.00 | 0.25 | 0.01 | 94 | 1012.7 |
| 20260905143716 | 82 | 222 | 0.0 | 0.9 | 0.00 | 0.25 | 0.01 | 95 | 1012.7 |
| 20260905142715 | 81 | 222 | 0.0 | 0.9 | 0.00 | 0.25 | 0.01 | 96 | 1012.3 |
| 20260905141714 | 80 | 265 | 0.0 | 0.9 | 0.00 | 0.25 | 0.01 | 96 | 1012.3 |
| 20260905140713 | 79 | 264 | 0.0 | 0.9 | 0.00 | 0.25 | 0.01 | 97 | 1012.3 |
| 20260905135712 | 79 | 259 | 0.0 | 0.9 | 0.00 | 0.25 | 0.01 | 98 | 1012.3 |
| 20260905134711 | 79 | 226 | 0.0 | 0.0 | 0.00 | 0.25 | 0.01 | 99 | 1012.3 |
| 20260905133710 | 78 | 226 | 0.0 | 0.9 | 0.00 | 0.25 | 0.01 | 100 | 1012.3 |
| 20260905132709 | 78 | 226 | 0.0 | 0.9 | 0.00 | 0.25 | 0.01 | 100 | 1012.3 |
| 20260905131708 | 78 | 127 | 0.0 | 0.0 | 0.00 | 0.25 | 0.01 | 100 | 1012.3 |
| 20260905130708 | 77 | 127 | 0.0 | 0.0 | 0.00 | 0.25 | 0.01 | 100 | 1012.3 |
| 20260905125707 | 77 | 127 | 0.0 | 0.0 | 0.00 | 0.25 | 0.01 | 100 | 1012.3 |
| 20260905124706 | 77 | 127 | 0.0 | 0.0 | 0.00 | 0.25 | 0.01 | 100 | 1012.3 |
| 20260905123634 | 77 | 127 | 0.0 | 0.0 | 0.00 | 0.25 | 0.01 | 100 | 1011.9 |
| 20260905122602 | 77 | 127 | 0.0 | 0.0 | 0.00 | 0.25 | 0.01 | 100 | 1011.9 |
| 20260905121601 | 77 | 127 | 0.0 | 0.0 | 0.00 | 0.25 | 0.01 | 100 | 1011.9 |
| 20260905120600 | 76 | 127 | 0.0 | 0.0 | 0.00 | 0.25 | 0.01 | 100 | 1011.9 |
| 20260905115559 | 76 | 127 | 0.0 | 0.0 | 0.00 | 0.25 | 0.01 | 100 | 1011.9 |
| 20260905114558 | 76 | 127 | 0.0 | 0.0 | 0.00 | 0.25 | 0.01 | 100 | 1011.6 |
| 20260905113557 | 76 | 127 | 0.0 | 0.0 | 0.00 | 0.25 | 0.01 | 100 | 1011.6 |
| 20260905112556 | 76 | 127 | 0.0 | 0.0 | 0.00 | 0.25 | 0.01 | 100 | 1011.6 |
| 20260905111555 | 76 | 127 | 0.0 | 0.0 | 0.00 | 0.25 | 0.01 | 100 | 1011.6 |
| 20260905110554 | 76 | 127 | 0.0 | 0.0 | 0.00 | 0.25 | 0.01 | 100 | 1011.6 |
| 20260905105522 | 76 | 127 | 0.0 | 0.0 | 0.00 | 0.25 | 0.01 | 100 | 1011.3 |
| 20260905104522 | 76 | 127 | 0.0 | 0.0 | 0.00 | 0.25 | 0.01 | 100 | 1011.3 |
| 20260905103521 | 76 | 127 | 0.0 | 0.0 | 0.00 | 0.25 | 0.01 | 100 | 1010.9 |
| 20260905102520 | 75 | 127 | 0.0 | 0.0 | 0.00 | 0.25 | 0.01 | 100 | 1010.9 |
| 20260905101519 | 75 | 127 | 0.0 | 0.0 | 0.00 | 0.25 | 0.01 | 100 | 1010.9 |
| 20260905100518 | 75 | 127 | 0.0 | 0.0 | 0.00 | 0.25 | 0.01 | 100 | 1010.9 |
| 20260905095517 | 75 | 127 | 0.0 | 0.0 | 0.00 | 0.25 | 0.01 | 100 | 1010.9 |
| 20260905094516 | 75 | 127 | 0.0 | 0.0 | 0.01 | 0.25 | 0.01 | 100 | 1010.9 |
| 20260905093516 | 75 | 127 | 0.0 | 0.0 | 0.01 | 0.25 | 0.01 | 100 | 1010.9 |
| 20260905092515 | 75 | 127 | 0.0 | 0.0 | 0.01 | 0.25 | 0.01 | 100 | 1010.9 |
| 20260905091514 | 74 | 127 | 0.0 | 0.0 | 0.01 | 0.25 | 0.01 | 99 | 1011.3 |
| 20260905090514 | 74 | 127 | 0.0 | 0.0 | 0.01 | 0.25 | 0.01 | 99 | 1011.3 |
| 20260905085513 | 75 | 127 | 0.0 | 0.0 | 0.01 | 0.25 | 0.01 | 99 | 1011.3 |
| 20260905084441 | 75 | 127 | 0.0 | 0.0 | 0.00 | 0.24 | 0.00 | 99 | 1011.3 |
| 20260905083440 | 75 | 127 | 0.0 | 0.0 | 0.00 | 0.24 | 0.00 | 99 | 1011.3 |
| 20260905082408 | 75 | 127 | 0.0 | 0.0 | 0.00 | 0.24 | 0.00 | 99 | 1011.3 |
| 20260905081407 | 75 | 127 | 0.0 | 0.0 | 0.00 | 0.24 | 0.00 | 99 | 1011.3 |
| 20260905080406 | 75 | 127 | 0.0 | 0.0 | 0.00 | 0.24 | 0.00 | 99 | 1011.3 |
| 20260905075405 | 75 | 127 | 0.0 | 0.0 | 0.00 | 0.24 | 0.00 | 99 | 1011.3 |
| 20260905074404 | 75 | 127 | 0.0 | 0.0 | 0.00 | 0.24 | 0.00 | 99 | 1011.3 |
| 20260905073301 | 75 | 127 | 0.0 | 0.0 | 0.00 | 0.24 | 0.00 | 99 | 1011.0 |
| 20260905072300 | 75 | 127 | 0.0 | 0.0 | 0.00 | 0.24 | 0.00 | 99 | 1011.0 |
| 20260905071259 | 75 | 127 | 0.0 | 0.0 | 0.00 | 0.24 | 0.00 | 99 | 1011.0 |
| 20260905070259 | 75 | 127 | 0.0 | 0.0 | 0.00 | 0.24 | 0.00 | 99 | 1011.3 |
| 20260905065258 | 75 | 127 | 0.0 | 0.0 | 0.00 | 0.24 | 0.00 | 99 | 1011.3 |
| 20260905064226 | 76 | 127 | 0.0 | 0.0 | 0.00 | 0.24 | 0.00 | 99 | 1011.7 |
| 20260905063225 | 76 | 127 | 0.0 | 0.0 | 0.00 | 0.24 | 0.00 | 99 | 1011.7 |
| 20260905062224 | 76 | 127 | 0.0 | 0.0 | 0.00 | 0.24 | 0.00 | 99 | 1011.7 |
| 20260905061223 | 76 | 127 | 0.0 | 0.0 | 0.00 | 0.24 | 0.00 | 99 | 1012.0 |
| 20260905060222 | 76 | 127 | 0.0 | 0.0 | 0.00 | 0.24 | 0.00 | 99 | 1012.0 |
| 20260905055221 | 76 | 127 | 0.0 | 0.0 | 0.00 | 0.24 | 0.00 | 99 | 1012.0 |
| 20260905054150 | 76 | 127 | 0.0 | 0.0 | 0.00 | 0.24 | 0.00 | 99 | 1012.0 |
| 20260905053149 | 76 | 127 | 0.0 | 0.0 | 0.00 | 0.24 | 0.00 | 99 | 1012.4 |
| 20260905052046 | 76 | 127 | 0.0 | 0.0 | 0.00 | 0.24 | 0.00 | 99 | 1012.4 |
| 20260905051045 | 76 | 127 | 0.0 | 0.0 | 0.00 | 0.24 | 0.00 | 99 | 1012.4 |
| 20260905050044 | 76 | 127 | 0.0 | 0.9 | 0.00 | 0.24 | 0.00 | 99 | 1012.4 |
| 20260905045044 | 76 | 127 | 0.0 | 0.9 | 0.00 | 0.24 | 0.00 | 99 | 1012.7 |
| 20260905044043 | 76 | 127 | 0.0 | 0.0 | 0.00 | 0.24 | 0.00 | 99 | 1012.7 |
| 20260905043042 | 76 | 127 | 0.0 | 0.0 | 0.00 | 0.24 | 0.00 | 99 | 1012.7 |
| 20260905042041 | 76 | 127 | 0.0 | 0.0 | 0.00 | 0.24 | 0.00 | 99 | 1012.7 |
| 20260905041040 | 76 | 127 | 0.0 | 0.0 | 0.00 | 0.24 | 0.00 | 99 | 1012.7 |
| 20260905040008 | 76 | 127 | 0.0 | 0.0 | 0.00 | 0.24 | 0.24 | 99 | 1012.7 |
| 20260905034905 | 76 | 127 | 0.0 | 0.0 | 0.00 | 0.24 | 0.24 | 99 | 1012.7 |
| 20260905033904 | 76 | 127 | 0.0 | 0.0 | 0.00 | 0.24 | 0.24 | 99 | 1012.7 |
| 20260905032903 | 75 | 127 | 0.0 | 0.9 | 0.00 | 0.24 | 0.24 | 98 | 1012.7 |
| 20260905031903 | 75 | 127 | 0.0 | 0.9 | 0.00 | 0.24 | 0.24 | 99 | 1012.7 |
| 20260905030902 | 75 | 127 | 0.0 | 0.9 | 0.00 | 0.24 | 0.24 | 98 | 1013.0 |
| 20260905025901 | 75 | 144 | 0.0 | 0.0 | 0.00 | 0.24 | 0.24 | 98 | 1013.0 |
| 20260905024829 | 75 | 143 | 0.0 | 0.0 | 0.00 | 0.24 | 0.24 | 98 | 1013.0 |
| 20260905023828 | 75 | 144 | 0.0 | 0.0 | 0.00 | 0.24 | 0.24 | 98 | 1013.0 |
| 20260905022756 | 75 | 144 | 0.0 | 0.9 | 0.00 | 0.24 | 0.24 | 98 | 1013.0 |
| 20260905021755 | 75 | 143 | 0.0 | 0.9 | 0.00 | 0.24 | 0.24 | 98 | 1013.0 |
| 20260905020754 | 75 | 142 | 0.9 | 1.7 | 0.01 | 0.24 | 0.24 | 98 | 1013.0 |
| 20260905015753 | 76 | 356 | 0.9 | 1.7 | 0.02 | 0.24 | 0.24 | 98 | 1013.0 |
| 20260905014753 | 76 | 30 | 0.9 | 1.7 | 0.04 | 0.24 | 0.24 | 98 | 1013.0 |
| 20260905013752 | 76 | 101 | 0.9 | 1.7 | 0.06 | 0.24 | 0.24 | 98 | 1013.0 |
| 20260905012720 | 76 | 85 | 0.0 | 0.9 | 0.08 | 0.24 | 0.24 | 98 | 1013.0 |
| 20260905011648 | 76 | 18 | 0.0 | 1.7 | 0.09 | 0.24 | 0.24 | 98 | 1012.7 |
| 20260905010616 | 76 | 50 | 0.9 | 1.7 | 0.10 | 0.23 | 0.23 | 98 | 1012.7 |
| 20260905005615 | 76 | 20 | 0.9 | 1.7 | 0.11 | 0.22 | 0.22 | 98 | 1012.7 |
| 20260905004614 | 76 | 66 | 0.9 | 1.7 | 0.10 | 0.20 | 0.20 | 98 | 1012.7 |
| 20260905003543 | 76 | 124 | 0.0 | 0.9 | 0.07 | 0.17 | 0.17 | 98 | 1012.3 |
| 20260905002542 | 76 | 124 | 0.0 | 0.0 | 0.07 | 0.16 | 0.16 | 98 | 1012.3 |
| 20260905001510 | 76 | 124 | 0.0 | 0.0 | 0.05 | 0.14 | 0.14 | 97 | 1012.3 |
| 20260905000509 | 76 | 128 | 0.0 | 0.0 | 0.04 | 0.13 | 0.13 | 97 | 1012.3 |
| 20260904235508 | 76 | 129 | 0.0 | 0.9 | 0.02 | 0.11 | 0.11 | 97 | 1012.6 |
| 20260904234507 | 76 | 148 | 0.9 | 0.9 | 0.01 | 0.10 | 0.10 | 97 | 1012.3 |
| 20260904233506 | 76 | 121 | 0.0 | 0.9 | 0.02 | 0.10 | 0.10 | 96 | 1012.3 |
| 20260904232506 | 76 | 169 | 0.0 | 2.6 | 0.02 | 0.09 | 0.09 | 96 | 1012.6 |
| 20260904231433 | 77 | 114 | 1.7 | 3.5 | 0.03 | 0.09 | 0.09 | 96 | 1013.0 |
| 20260904230433 | 77 | 220 | 0.9 | 3.5 | 0.03 | 0.09 | 0.09 | 97 | 1013.0 |
| 20260904225432 | 78 | 119 | 0.9 | 2.6 | 0.03 | 0.09 | 0.09 | 97 | 1013.0 |